Time,TemperatureF,DewpointF,PressureIn,WindDirection,WindDirectionDegrees,WindSpeedMPH,WindSpeedGustMPH,Humidity,HourlyPrecipIn,Conditions,Clouds,dailyrainin,SolarRadiationWatts/m^2,SoftwareType,DateUTC
2013-06-26 00:01:00,56.0,54.0,-100.00,ESE,121,5.0,10.0,92,-99.99,,,0.01,0.000000,,2013-06-26 06:01:00,
2013-06-26 00:11:00,56.0,54.0,-100.00,ESE,121,5.0,10.0,92,-99.99,,,0.01,0.000000,,2013-06-26 06:11:00,
2013-06-26 00:43:00,56.0,54.0,-100.00,ESE,110,5.0,8.0,93,-99.99,,,0.00,0.000000,,2013-06-26 06:43:00,
2013-06-26 00:53:00,56.0,54.0,-100.00,ESE,110,5.0,8.0,93,-99.99,,,0.00,0.000000,,2013-06-26 06:53:00,
2013-06-26 01:01:00,56.0,54.0,-100.00,ESE,110,5.0,8.0,93,-99.99,,,0.00,0.000000,,2013-06-26 07:01:00,
2013-06-26 01:11:00,56.0,54.0,-100.00,ESE,110,5.0,8.0,93,-99.99,,,0.00,0.000000,,2013-06-26 07:11:00,
2013-06-26 01:43:00,56.0,53.0,-100.00,ESE,120,5.0,9.0,89,-99.99,,,0.00,0.000000,,2013-06-26 07:43:00,
2013-06-26 01:53:00,56.0,53.0,-100.00,ESE,120,5.0,9.0,89,-99.99,,,0.00,0.000000,,2013-06-26 07:53:00,
2013-06-26 02:01:00,56.0,53.0,-100.00,ESE,120,5.0,9.0,89,-99.99,,,0.00,0.000000,,2013-06-26 08:01:00,
2013-06-26 02:11:00,56.0,53.0,-100.00,ESE,120,5.0,9.0,89,-99.99,,,0.00,0.000000,,2013-06-26 08:11:00,
2013-06-26 02:42:00,55.0,53.0,-100.00,ESE,104,5.0,8.0,90,-99.99,,,0.00,0.000000,,2013-06-26 08:42:00,
2013-06-26 02:53:00,55.0,53.0,-100.00,ESE,104,5.0,8.0,90,-99.99,,,0.00,0.000000,,2013-06-26 08:53:00,
2013-06-26 03:01:00,55.0,53.0,-100.00,ESE,104,5.0,8.0,90,-99.99,,,0.00,0.000000,,2013-06-26 09:01:00,
2013-06-26 03:11:00,55.0,53.0,-100.00,ESE,104,5.0,8.0,90,-99.99,,,0.00,0.000000,,2013-06-26 09:11:00,
2013-06-26 03:43:00,55.0,53.0,-100.00,East,98,5.0,8.0,91,-99.99,,,0.00,0.000000,,2013-06-26 09:43:00,
2013-06-26 03:53:00,55.0,53.0,-100.00,East,98,5.0,8.0,91,-99.99,,,0.00,0.000000,,2013-06-26 09:53:00,
2013-06-26 04:01:00,55.0,53.0,-100.00,East,98,5.0,8.0,91,-99.99,,,0.00,0.000000,,2013-06-26 10:01:00,
2013-06-26 04:12:00,55.0,53.0,-100.00,East,98,5.0,8.0,91,-99.99,,,0.00,0.000000,,2013-06-26 10:12:00,
2013-06-26 04:43:00,55.0,52.0,-100.00,ESE,112,5.0,8.0,90,-99.99,,,0.00,0.000000,,2013-06-26 10:43:00,
2013-06-26 04:53:00,55.0,52.0,-100.00,ESE,112,5.0,8.0,90,-99.99,,,0.00,0.000000,,2013-06-26 10:53:00,
2013-06-26 05:02:00,55.0,52.0,-100.00,ESE,112,5.0,8.0,90,-99.99,,,0.00,0.000000,,2013-06-26 11:02:00,
2013-06-26 05:11:00,55.0,52.0,-100.00,ESE,112,5.0,8.0,90,-99.99,,,0.00,0.000000,,2013-06-26 11:11:00,
2013-06-26 05:44:00,54.0,52.0,-100.00,East,101,3.0,4.0,91,-99.99,,,0.00,0.000000,,2013-06-26 11:44:00,
2013-06-26 05:52:00,54.0,52.0,-100.00,East,101,3.0,4.0,91,-99.99,,,0.00,0.000000,,2013-06-26 11:52:00,
2013-06-26 06:02:00,54.0,52.0,-100.00,East,101,3.0,4.0,91,-99.99,,,0.00,0.000000,,2013-06-26 12:02:00,
2013-06-26 06:11:00,54.0,52.0,-100.00,East,101,3.0,4.0,91,-99.99,,,0.00,0.000000,,2013-06-26 12:11:00,
2013-06-26 06:42:00,55.0,52.0,-100.00,ESE,113,5.0,8.0,91,-99.99,,,0.00,15.220000,,2013-06-26 12:42:00,
2013-06-26 06:52:00,55.0,52.0,-100.00,ESE,113,5.0,8.0,91,-99.99,,,0.00,15.220000,,2013-06-26 12:52:00,
2013-06-26 07:02:00,55.0,52.0,-100.00,ESE,113,5.0,8.0,91,-99.99,,,0.00,15.220000,,2013-06-26 13:02:00,
2013-06-26 07:11:00,55.0,52.0,-100.00,ESE,113,5.0,8.0,91,-99.99,,,0.00,15.220000,,2013-06-26 13:11:00,
2013-06-26 07:42:00,57.0,53.0,-100.00,ESE,106,5.0,7.0,88,-99.99,,,0.00,140.160004,,2013-06-26 13:42:00,
2013-06-26 07:53:00,57.0,53.0,-100.00,ESE,106,5.0,7.0,88,-99.99,,,0.00,140.160004,,2013-06-26 13:53:00,
2013-06-26 08:02:00,57.0,53.0,-100.00,ESE,106,5.0,7.0,88,-99.99,,,0.00,140.160004,,2013-06-26 14:02:00,
2013-06-26 08:11:00,57.0,53.0,-100.00,ESE,106,5.0,7.0,88,-99.99,,,0.00,140.160004,,2013-06-26 14:11:00,
2013-06-26 08:42:00,59.0,53.0,-100.00,SE,126,4.0,7.0,82,-99.99,,,0.00,164.100006,,2013-06-26 14:42:00,
2013-06-26 08:53:00,59.0,53.0,-100.00,SE,126,4.0,7.0,82,-99.99,,,0.00,164.100006,,2013-06-26 14:53:00,
2013-06-26 09:02:00,59.0,53.0,-100.00,SE,126,4.0,7.0,82,-99.99,,,0.00,164.100006,,2013-06-26 15:02:00,
2013-06-26 09:11:00,59.0,53.0,-100.00,SE,126,4.0,7.0,82,-99.99,,,0.00,164.100006,,2013-06-26 15:11:00,
2013-06-26 09:44:00,59.0,55.0,-100.00,SE,124,3.0,7.0,86,-99.99,,,0.00,165.149994,,2013-06-26 15:44:00,
2013-06-26 09:53:00,59.0,55.0,-100.00,SE,124,3.0,7.0,86,-99.99,,,0.00,165.149994,,2013-06-26 15:53:00,
2013-06-26 10:01:00,59.0,55.0,-100.00,SE,124,3.0,7.0,86,-99.99,,,0.00,165.149994,,2013-06-26 16:01:00,
2013-06-26 10:11:00,59.0,55.0,-100.00,SE,124,3.0,7.0,86,-99.99,,,0.00,165.149994,,2013-06-26 16:11:00,
2013-06-26 10:43:00,63.0,54.0,-100.00,South,172,4.0,10.0,71,-99.99,,,0.00,612.940002,,2013-06-26 16:43:00,
2013-06-26 10:52:00,63.0,54.0,-100.00,South,172,4.0,10.0,71,-99.99,,,0.00,612.940002,,2013-06-26 16:52:00,
2013-06-26 11:01:00,63.0,54.0,-100.00,South,172,4.0,10.0,71,-99.99,,,0.00,612.940002,,2013-06-26 17:01:00,
2013-06-26 11:11:00,63.0,54.0,-100.00,South,172,4.0,10.0,71,-99.99,,,0.00,612.940002,,2013-06-26 17:11:00,
2013-06-26 11:43:00,64.0,54.0,-100.00,South,173,6.0,11.0,71,-99.99,,,0.00,554.250000,,2013-06-26 17:43:00,
2013-06-26 11:52:00,64.0,54.0,-100.00,South,173,6.0,11.0,71,-99.99,,,0.00,554.250000,,2013-06-26 17:52:00,
2013-06-26 12:01:00,64.0,54.0,-100.00,South,173,6.0,11.0,71,-99.99,,,0.00,554.250000,,2013-06-26 18:01:00,
2013-06-26 12:11:00,64.0,54.0,-100.00,South,173,6.0,11.0,71,-99.99,,,0.00,554.250000,,2013-06-26 18:11:00,
2013-06-26 12:43:00,65.0,55.0,-100.00,SSE,162,6.0,11.0,69,-99.99,,,0.00,565.760010,,2013-06-26 18:43:00,
2013-06-26 12:52:00,65.0,55.0,-100.00,SSE,162,6.0,11.0,69,-99.99,,,0.00,565.760010,,2013-06-26 18:52:00,
2013-06-26 13:01:00,65.0,55.0,-100.00,SSE,162,6.0,11.0,69,-99.99,,,0.00,565.760010,,2013-06-26 19:01:00,
2013-06-26 13:11:00,65.0,55.0,-100.00,SSE,162,6.0,11.0,69,-99.99,,,0.00,565.760010,,2013-06-26 19:11:00,
2013-06-26 13:42:00,66.0,54.0,-100.00,South,170,8.0,15.0,65,-99.99,,,0.00,603.070007,,2013-06-26 19:42:00,
2013-06-26 13:52:00,66.0,54.0,-100.00,South,170,8.0,15.0,65,-99.99,,,0.00,603.070007,,2013-06-26 19:52:00,
2013-06-26 14:01:00,66.0,54.0,-100.00,South,170,8.0,15.0,65,-99.99,,,0.00,603.070007,,2013-06-26 20:01:00,
2013-06-26 14:12:00,66.0,54.0,-100.00,South,170,8.0,15.0,65,-99.99,,,0.00,603.070007,,2013-06-26 20:12:00,
2013-06-26 14:43:00,67.0,52.0,-100.00,ESE,117,3.0,7.0,58,-99.99,,,0.00,676.979980,,2013-06-26 20:43:00,
2013-06-26 14:52:00,67.0,52.0,-100.00,ESE,117,3.0,7.0,58,-99.99,,,0.00,676.979980,,2013-06-26 20:52:00,
2013-06-26 15:01:00,67.0,52.0,-100.00,ESE,117,3.0,7.0,58,-99.99,,,0.00,676.979980,,2013-06-26 21:01:00,
2013-06-26 15:11:00,67.0,52.0,-100.00,ESE,117,3.0,7.0,58,-99.99,,,0.00,676.979980,,2013-06-26 21:11:00,
2013-06-26 15:43:00,65.0,54.0,-100.00,SSE,168,8.0,13.0,69,-99.99,,,0.00,181.770004,,2013-06-26 21:43:00,
2013-06-26 15:52:00,65.0,54.0,-100.00,SSE,168,8.0,13.0,69,-99.99,,,0.00,181.770004,,2013-06-26 21:52:00,
2013-06-26 16:01:00,65.0,54.0,-100.00,SSE,168,8.0,13.0,69,-99.99,,,0.00,181.770004,,2013-06-26 22:01:00,
2013-06-26 16:11:00,65.0,54.0,-100.00,SSE,168,8.0,13.0,69,-99.99,,,0.00,181.770004,,2013-06-26 22:11:00,
2013-06-26 16:43:00,67.0,54.0,-100.00,South,178,5.0,8.0,62,-99.99,,,0.00,383.290009,,2013-06-26 22:43:00,
2013-06-26 16:52:00,67.0,54.0,-100.00,South,178,5.0,8.0,62,-99.99,,,0.00,383.290009,,2013-06-26 22:52:00,
2013-06-26 17:01:00,67.0,54.0,-100.00,South,178,5.0,8.0,62,-99.99,,,0.00,383.290009,,2013-06-26 23:01:00,
2013-06-26 17:11:00,67.0,54.0,-100.00,South,178,5.0,8.0,62,-99.99,,,0.00,383.290009,,2013-06-26 23:11:00,
2013-06-26 17:43:00,68.0,55.0,-100.00,SE,146,4.0,8.0,63,-99.99,,,0.00,340.179993,,2013-06-26 23:43:00,
2013-06-26 17:53:00,68.0,55.0,-100.00,SE,146,4.0,8.0,63,-99.99,,,0.00,340.179993,,2013-06-26 23:53:00,
2013-06-26 18:01:00,68.0,55.0,-100.00,SE,146,4.0,8.0,63,-99.99,,,0.00,340.179993,,2013-06-27 00:01:00,
2013-06-26 18:11:00,68.0,55.0,-100.00,SE,146,4.0,8.0,63,-99.99,,,0.00,340.179993,,2013-06-27 00:11:00,
2013-06-26 18:42:00,68.0,56.0,-100.00,SSE,147,2.0,3.0,63,-99.99,,,0.00,169.100006,,2013-06-27 00:42:00,
2013-06-26 18:53:00,68.0,56.0,-100.00,SSE,147,2.0,3.0,63,-99.99,,,0.00,169.100006,,2013-06-27 00:53:00,
2013-06-26 19:01:00,68.0,56.0,-100.00,SSE,147,2.0,3.0,63,-99.99,,,0.00,169.100006,,2013-06-27 01:01:00,
2013-06-26 19:11:00,68.0,56.0,-100.00,SSE,147,2.0,3.0,63,-99.99,,,0.00,169.100006,,2013-06-27 01:11:00,
2013-06-26 19:42:00,65.0,52.0,-100.00,NNW,347,5.0,8.0,62,-99.99,,,0.00,76.120003,,2013-06-27 01:42:00,
2013-06-26 19:53:00,65.0,52.0,-100.00,NNW,347,5.0,8.0,62,-99.99,,,0.00,76.120003,,2013-06-27 01:53:00,
2013-06-26 20:01:00,65.0,52.0,-100.00,NNW,347,5.0,8.0,62,-99.99,,,0.00,76.120003,,2013-06-27 02:01:00,
2013-06-26 20:11:00,65.0,52.0,-100.00,NNW,347,5.0,8.0,62,-99.99,,,0.00,76.120003,,2013-06-27 02:11:00,
2013-06-26 20:42:00,63.0,52.0,-100.00,NE,39,3.0,4.0,66,-99.99,,,0.00,20.799999,,2013-06-27 02:42:00,
2013-06-26 20:52:00,63.0,52.0,-100.00,NE,39,3.0,4.0,66,-99.99,,,0.00,20.799999,,2013-06-27 02:52:00,
2013-06-26 21:02:00,63.0,52.0,-100.00,NE,39,3.0,4.0,66,-99.99,,,0.00,20.799999,,2013-06-27 03:02:00,
2013-06-26 21:11:00,63.0,52.0,-100.00,NE,39,3.0,4.0,66,-99.99,,,0.00,20.799999,,2013-06-27 03:11:00,
2013-06-26 21:42:00,61.0,54.0,-100.00,SE,133,2.0,4.0,78,-99.99,,,-99.99,5.580000,,2013-06-27 03:42:00,
2013-06-26 21:52:00,61.0,54.0,-100.00,SE,133,2.0,4.0,78,-99.99,,,-99.99,5.580000,,2013-06-27 03:52:00,
2013-06-26 22:01:00,61.0,54.0,-100.00,SE,133,2.0,4.0,78,-99.99,,,-99.99,5.580000,,2013-06-27 04:01:00,
2013-06-26 22:11:00,61.0,54.0,-100.00,SE,133,2.0,4.0,78,-99.99,,,-99.99,5.580000,,2013-06-27 04:11:00,
2013-06-26 22:42:00,59.0,54.0,-100.00,SSE,156,2.0,3.0,83,-99.99,,,0.00,0.000000,,2013-06-27 04:42:00,
2013-06-26 22:52:00,59.0,54.0,-100.00,SSE,156,2.0,3.0,83,-99.99,,,0.00,0.000000,,2013-06-27 04:52:00,
2013-06-26 23:02:00,59.0,54.0,-100.00,SSE,156,2.0,3.0,83,-99.99,,,0.00,0.000000,,2013-06-27 05:02:00,
2013-06-26 23:12:00,59.0,54.0,-100.00,SSE,156,2.0,3.0,83,-99.99,,,0.00,0.000000,,2013-06-27 05:12:00,
2013-06-26 23:42:00,58.0,55.0,-100.00,East,87,3.0,5.0,89,-99.99,,,0.00,0.000000,,2013-06-27 05:42:00,
2013-06-26 23:53:00,58.0,55.0,-100.00,East,87,3.0,5.0,89,-99.99,,,0.00,0.000000,,2013-06-27 05:53:00,